owner,sensor,date,latitude,longitude,vertical_datum,wind_speed,wind_to_direction,wind_speed_of_gust,qcFlag 
LOOP,urn:ioos:station:wmo:lopl1:1,2012-08-01T00:07:00Z,28.8850,-90.0250,10.0,1.7,196.0,2.5,'11111222,11111222,11111222' 
LOOP,urn:ioos:station:wmo:lopl1:1,2012-08-01T00:22:00Z,28.8850,-90.0250,10.0,2.4,215.0,2.9,'11111222,11111222,11111222' 
LOOP,urn:ioos:station:wmo:lopl1:1,2012-08-01T00:37:00Z,28.8850,-90.0250,10.0,3.1,214.0,3.7,'11111222,11111222,11111222' 
LOOP,urn:ioos:station:wmo:lopl1:1,2012-08-01T00:52:00Z,28.8850,-90.0250,10.0,3.5,211.0,4.2,'11111222,11111222,11111222' 
LOOP,urn:ioos:station:wmo:lopl1:1,2012-08-01T01:07:00Z,28.8850,-90.0250,10.0,4.3,211.0,5.1,'11111222,11111222,11111222' 
LOOP,urn:ioos:station:wmo:lopl1:1,2012-08-01T01:22:00Z,28.8850,-90.0250,10.0,4.5,223.0,5.2,'11111222,11111222,11111222' 
LOOP,urn:ioos:station:wmo:lopl1:1,2012-08-01T01:37:00Z,28.8850,-90.0250,10.0,4.1,229.0,5.1,'11111222,11111222,11111222' 
LOOP,urn:ioos:station:wmo:lopl1:1,2012-08-01T01:52:00Z,28.8850,-90.0250,10.0,4.8,223.0,5.3,'11111222,11111222,11111222' 
LOOP,urn:ioos:station:wmo:lopl1:1,2012-08-01T02:07:00Z,28.8850,-90.0250,10.0,4.2,219.0,4.8,'11111222,11111222,11111222' 
LOOP,urn:ioos:station:wmo:lopl1:1,2012-08-01T02:22:00Z,28.8850,-90.0250,10.0,4.2,220.0,4.9,'11111222,11111222,11111222' 
LOOP,urn:ioos:station:wmo:lopl1:1,2012-08-01T02:37:00Z,28.8850,-90.0250,10.0,5.2,216.0,5.9,'11111222,11111222,11111222' 
LOOP,urn:ioos:station:wmo:lopl1:1,2012-08-01T02:52:00Z,28.8850,-90.0250,10.0,5.2,217.0,5.9,'11111222,11111222,11111222' 
LOOP,urn:ioos:station:wmo:lopl1:1,2012-08-01T03:07:00Z,28.8850,-90.0250,10.0,5.1,227.0,6.1,'11111222,11111222,11111222' 
LOOP,urn:ioos:station:wmo:lopl1:1,2012-08-01T03:22:00Z,28.8850,-90.0250,10.0,6.2,224.0,7.0,'11111222,11111222,11111222' 
LOOP,urn:ioos:station:wmo:lopl1:1,2012-08-01T03:37:00Z,28.8850,-90.0250,10.0,6.3,224.0,7.5,'11111222,11111222,11111222' 
LOOP,urn:ioos:station:wmo:lopl1:1,2012-08-01T03:52:00Z,28.8850,-90.0250,10.0,7.0,218.0,7.9,'11111222,11111222,11111222' 
LOOP,urn:ioos:station:wmo:lopl1:1,2012-08-01T04:07:00Z,28.8850,-90.0250,10.0,6.7,221.0,7.5,'11111222,11111222,11111222' 
LOOP,urn:ioos:station:wmo:lopl1:1,2012-08-01T04:22:00Z,28.8850,-90.0250,10.0,7.5,220.0,8.5,'11111222,11111222,11111222' 
LOOP,urn:ioos:station:wmo:lopl1:1,2012-08-01T04:37:00Z,28.8850,-90.0250,10.0,7.9,226.0,9.8,'11111222,11111222,11111222' 
LOOP,urn:ioos:station:wmo:lopl1:1,2012-08-01T04:57:00Z,28.8850,-90.0250,10.0,8.0,228.0,9.6,'11111222,11111222,11111222' 
LOOP,urn:ioos:station:wmo:lopl1:1,2012-08-01T05:13:00Z,28.8850,-90.0250,10.0,7.3,226.0,8.7,'11111222,11111222,11111222' 
LOOP,urn:ioos:station:wmo:lopl1:1,2012-08-01T05:28:00Z,28.8850,-90.0250,10.0,7.1,237.0,8.9,'11111222,11111222,11111222' 
LOOP,urn:ioos:station:wmo:lopl1:1,2012-08-01T05:43:00Z,28.8850,-90.0250,10.0,6.7,233.0,8.8,'11111222,11111222,11111222' 
LOOP,urn:ioos:station:wmo:lopl1:1,2012-08-01T05:58:00Z,28.8850,-90.0250,10.0,7.0,244.0,9.0,'11111222,11111222,11111222' 
LOOP,urn:ioos:station:wmo:lopl1:1,2012-08-01T06:13:00Z,28.8850,-90.0250,10.0,7.8,253.0,9.9,'11111222,11111222,11111222' 
LOOP,urn:ioos:station:wmo:lopl1:1,2012-08-01T06:28:00Z,28.8850,-90.0250,10.0,8.0,270.0,9.5,'11111222,11111222,11111222' 
LOOP,urn:ioos:station:wmo:lopl1:1,2012-08-01T06:43:00Z,28.8850,-90.0250,10.0,8.5,269.0,9.6,'11111222,11111222,11111222' 
LOOP,urn:ioos:station:wmo:lopl1:1,2012-08-01T06:58:00Z,28.8850,-90.0250,10.0,9.3,265.0,10.2,'11111222,11111222,11111222' 
LOOP,urn:ioos:station:wmo:lopl1:1,2012-08-01T07:13:00Z,28.8850,-90.0250,10.0,9.2,262.0,11.5,'11111222,11111222,11111222' 
LOOP,urn:ioos:station:wmo:lopl1:1,2012-08-01T07:28:00Z,28.8850,-90.0250,10.0,8.3,266.0,11.0,'11111222,11111222,11111222' 
LOOP,urn:ioos:station:wmo:lopl1:1,2012-08-01T07:43:00Z,28.8850,-90.0250,10.0,9.5,268.0,10.8,'11111222,11111222,11111222' 
LOOP,urn:ioos:station:wmo:lopl1:1,2012-08-01T07:58:00Z,28.8850,-90.0250,10.0,9.3,261.0,10.2,'11111222,11111222,11111222' 
LOOP,urn:ioos:station:wmo:lopl1:1,2012-08-01T08:13:00Z,28.8850,-90.0250,10.0,9.9,265.0,11.0,'11111222,11111222,11111222' 
LOOP,urn:ioos:station:wmo:lopl1:1,2012-08-01T08:28:00Z,28.8850,-90.0250,10.0,9.3,266.0,10.1,'11111222,11111222,11111222' 
LOOP,urn:ioos:station:wmo:lopl1:1,2012-08-01T08:43:00Z,28.8850,-90.0250,10.0,10.1,267.0,11.3,'11111222,11111222,11111222' 
LOOP,urn:ioos:station:wmo:lopl1:1,2012-08-01T08:58:00Z,28.8850,-90.0250,10.0,9.9,269.0,11.0,'11111222,11111222,11111222' 
LOOP,urn:ioos:station:wmo:lopl1:1,2012-08-01T09:13:00Z,28.8850,-90.0250,10.0,9.6,273.0,10.4,'11111222,11111222,11111222' 
LOOP,urn:ioos:station:wmo:lopl1:1,2012-08-01T09:28:00Z,28.8850,-90.0250,10.0,8.3,277.0,9.4,'11111222,11111222,11111222' 
LOOP,urn:ioos:station:wmo:lopl1:1,2012-08-01T09:43:00Z,28.8850,-90.0250,10.0,7.8,290.0,8.9,'11111222,11111222,11111222' 
LOOP,urn:ioos:station:wmo:lopl1:1,2012-08-01T09:58:00Z,28.8850,-90.0250,10.0,8.1,269.0,9.4,'11111222,11111222,11111222' 
LOOP,urn:ioos:station:wmo:lopl1:1,2012-08-01T10:13:00Z,28.8850,-90.0250,10.0,7.8,276.0,9.2,'11111222,11111222,11111222' 
LOOP,urn:ioos:station:wmo:lopl1:1,2012-08-01T10:28:00Z,28.8850,-90.0250,10.0,7.7,271.0,8.5,'11111222,11111222,11111222' 
LOOP,urn:ioos:station:wmo:lopl1:1,2012-08-01T10:48:00Z,28.8850,-90.0250,10.0,8.0,278.0,8.8,'11111222,11111222,11111222' 
LOOP,urn:ioos:station:wmo:lopl1:1,2012-08-01T11:03:00Z,28.8850,-90.0250,10.0,7.1,285.0,8.7,'11111222,11111222,11111222' 
LOOP,urn:ioos:station:wmo:lopl1:1,2012-08-01T11:18:00Z,28.8850,-90.0250,10.0,8.0,285.0,9.2,'11111222,11111222,11111222' 
LOOP,urn:ioos:station:wmo:lopl1:1,2012-08-01T11:33:00Z,28.8850,-90.0250,10.0,8.5,287.0,10.1,'11111222,11111222,11111222' 
LOOP,urn:ioos:station:wmo:lopl1:1,2012-08-01T11:48:00Z,28.8850,-90.0250,10.0,9.0,286.0,10.8,'11111222,11111222,11111222' 
LOOP,urn:ioos:station:wmo:lopl1:1,2012-08-01T12:03:00Z,28.8850,-90.0250,10.0,8.6,289.0,10.6,'11111222,11111222,11111222' 
LOOP,urn:ioos:station:wmo:lopl1:1,2012-08-01T12:18:00Z,28.8850,-90.0250,10.0,9.3,287.0,10.5,'11111222,11111222,11111222' 
LOOP,urn:ioos:station:wmo:lopl1:1,2012-08-01T12:33:00Z,28.8850,-90.0250,10.0,9.4,286.0,10.9,'11111222,11111222,11111222' 
LOOP,urn:ioos:station:wmo:lopl1:1,2012-08-01T12:48:00Z,28.8850,-90.0250,10.0,9.2,291.0,11.1,'11111222,11111222,11111222' 
LOOP,urn:ioos:station:wmo:lopl1:1,2012-08-01T13:03:00Z,28.8850,-90.0250,10.0,8.9,288.0,10.4,'11111222,11111222,11111222' 
LOOP,urn:ioos:station:wmo:lopl1:1,2012-08-01T13:18:00Z,28.8850,-90.0250,10.0,8.9,290.0,10.8,'11111222,11111222,11111222' 
LOOP,urn:ioos:station:wmo:lopl1:1,2012-08-01T13:33:00Z,28.8850,-90.0250,10.0,8.9,302.0,11.2,'11111222,11111222,11111222' 
LOOP,urn:ioos:station:wmo:lopl1:1,2012-08-01T13:48:00Z,28.8850,-90.0250,10.0,9.0,303.0,10.7,'11111222,11111222,11111222' 
LOOP,urn:ioos:station:wmo:lopl1:1,2012-08-01T14:03:00Z,28.8850,-90.0250,10.0,8.9,301.0,10.1,'11111222,11111222,11111222' 
LOOP,urn:ioos:station:wmo:lopl1:1,2012-08-01T14:18:00Z,28.8850,-90.0250,10.0,8.8,314.0,9.8,'11111222,11111222,11111222' 
LOOP,urn:ioos:station:wmo:lopl1:1,2012-08-01T14:33:00Z,28.8850,-90.0250,10.0,7.5,302.0,8.6,'11111222,11111222,11111222' 
LOOP,urn:ioos:station:wmo:lopl1:1,2012-08-01T14:48:00Z,28.8850,-90.0250,10.0,7.3,306.0,9.0,'11111222,11111222,11111222' 
LOOP,urn:ioos:station:wmo:lopl1:1,2012-08-01T15:03:00Z,28.8850,-90.0250,10.0,5.2,320.0,7.6,'11111222,11111222,11111222' 
LOOP,urn:ioos:station:wmo:lopl1:1,2012-08-01T15:18:00Z,28.8850,-90.0250,10.0,6.2,317.0,8.3,'11111222,11111222,11111222' 
LOOP,urn:ioos:station:wmo:lopl1:1,2012-08-01T15:33:00Z,28.8850,-90.0250,10.0,6.9,315.0,8.2,'11111222,11111222,11111222' 
LOOP,urn:ioos:station:wmo:lopl1:1,2012-08-01T15:48:00Z,28.8850,-90.0250,10.0,7.6,308.0,8.3,'11111222,11111222,11111222' 
LOOP,urn:ioos:station:wmo:lopl1:1,2012-08-01T16:03:00Z,28.8850,-90.0250,10.0,6.8,308.0,7.9,'11111222,11111222,11111222' 
LOOP,urn:ioos:station:wmo:lopl1:1,2012-08-01T16:18:00Z,28.8850,-90.0250,10.0,5.7,321.0,7.5,'11111222,11111222,11111222' 
LOOP,urn:ioos:station:wmo:lopl1:1,2012-08-01T16:33:00Z,28.8850,-90.0250,10.0,6.6,310.0,7.6,'11111222,11111222,11111222' 
LOOP,urn:ioos:station:wmo:lopl1:1,2012-08-01T16:48:00Z,28.8850,-90.0250,10.0,5.3,318.0,6.6,'11111222,11111222,11111222' 
LOOP,urn:ioos:station:wmo:lopl1:1,2012-08-01T17:03:00Z,28.8850,-90.0250,10.0,2.9,341.0,3.7,'11111222,11111222,11111222' 
LOOP,urn:ioos:station:wmo:lopl1:1,2012-08-01T17:18:00Z,28.8850,-90.0250,10.0,2.6,358.0,3.2,'11111222,11111222,11111222' 
LOOP,urn:ioos:station:wmo:lopl1:1,2012-08-01T17:33:00Z,28.8850,-90.0250,10.0,1.0,310.0,1.9,'11111222,11111222,11111222' 
LOOP,urn:ioos:station:wmo:lopl1:1,2012-08-01T17:48:00Z,28.8850,-90.0250,10.0,0.9,300.0,1.7,'11111222,11111222,11111222' 
LOOP,urn:ioos:station:wmo:lopl1:1,2012-08-01T18:08:00Z,28.8850,-90.0250,10.0,0.8,313.0,2.7,'11111222,11111222,11111222' 
LOOP,urn:ioos:station:wmo:lopl1:1,2012-08-01T18:23:00Z,28.8850,-90.0250,10.0,1.8,310.0,2.8,'11111222,11111222,11111222' 
LOOP,urn:ioos:station:wmo:lopl1:1,2012-08-01T18:38:00Z,28.8850,-90.0250,10.0,3.0,303.0,4.1,'11111222,11111222,11111222' 
LOOP,urn:ioos:station:wmo:lopl1:1,2012-08-01T18:53:00Z,28.8850,-90.0250,10.0,2.6,278.0,3.4,'11111222,11111222,11111222' 
LOOP,urn:ioos:station:wmo:lopl1:1,2012-08-01T19:08:00Z,28.8850,-90.0250,10.0,3.1,296.0,4.1,'11111222,11111222,11111222' 
LOOP,urn:ioos:station:wmo:lopl1:1,2012-08-01T19:23:00Z,28.8850,-90.0250,10.0,3.4,283.0,4.9,'11111222,11111222,11111222' 
LOOP,urn:ioos:station:wmo:lopl1:1,2012-08-01T19:38:00Z,28.8850,-90.0250,10.0,4.2,289.0,5.4,'11111222,11111222,11111222' 
LOOP,urn:ioos:station:wmo:lopl1:1,2012-08-01T19:53:00Z,28.8850,-90.0250,10.0,4.8,293.0,5.7,'11111222,11111222,11111222' 
LOOP,urn:ioos:station:wmo:lopl1:1,2012-08-01T20:08:00Z,28.8850,-90.0250,10.0,4.7,305.0,5.8,'11111222,11111222,11111222' 
LOOP,urn:ioos:station:wmo:lopl1:1,2012-08-01T20:23:00Z,28.8850,-90.0250,10.0,4.4,307.0,5.7,'11111222,11111222,11111222' 
LOOP,urn:ioos:station:wmo:lopl1:1,2012-08-01T20:38:00Z,28.8850,-90.0250,10.0,4.1,304.0,5.2,'11111222,11111222,11111222' 
LOOP,urn:ioos:station:wmo:lopl1:1,2012-08-01T20:53:00Z,28.8850,-90.0250,10.0,4.4,308.0,5.6,'11111222,11111222,11111222' 
LOOP,urn:ioos:station:wmo:lopl1:1,2012-08-01T21:08:00Z,28.8850,-90.0250,10.0,5.0,293.0,6.0,'11111222,11111222,11111222' 
LOOP,urn:ioos:station:wmo:lopl1:1,2012-08-01T21:23:00Z,28.8850,-90.0250,10.0,4.6,284.0,6.0,'11111222,11111222,11111222' 
LOOP,urn:ioos:station:wmo:lopl1:1,2012-08-01T21:38:00Z,28.8850,-90.0250,10.0,5.6,285.0,6.6,'11111222,11111222,11111222' 
LOOP,urn:ioos:station:wmo:lopl1:1,2012-08-01T21:53:00Z,28.8850,-90.0250,10.0,4.9,293.0,5.8,'11111222,11111222,11111222' 
LOOP,urn:ioos:station:wmo:lopl1:1,2012-08-01T22:08:00Z,28.8850,-90.0250,10.0,4.8,290.0,6.7,'11111222,11111222,11111222' 
LOOP,urn:ioos:station:wmo:lopl1:1,2012-08-01T22:23:00Z,28.8850,-90.0250,10.0,5.6,286.0,6.7,'11111222,11111222,11111222' 
LOOP,urn:ioos:station:wmo:lopl1:1,2012-08-01T22:38:00Z,28.8850,-90.0250,10.0,6.0,287.0,7.1,'11111222,11111222,11111222' 
LOOP,urn:ioos:station:wmo:lopl1:1,2012-08-01T22:53:00Z,28.8850,-90.0250,10.0,6.2,286.0,7.7,'11111222,11111222,11111222' 
LOOP,urn:ioos:station:wmo:lopl1:1,2012-08-01T23:08:00Z,28.8850,-90.0250,10.0,6.0,287.0,7.5,'11111222,11111222,11111222' 
LOOP,urn:ioos:station:wmo:lopl1:1,2012-08-01T23:23:00Z,28.8850,-90.0250,10.0,5.6,282.0,6.4,'11111222,11111222,11111222' 
LOOP,urn:ioos:station:wmo:lopl1:1,2012-08-01T23:38:00Z,28.8850,-90.0250,10.0,6.2,281.0,7.3,'11111222,11111222,11111222' 
LOOP,urn:ioos:station:wmo:lopl1:1,2012-08-01T23:53:00Z,28.8850,-90.0250,10.0,6.6,277.0,7.9,'11111222,11111222,11111222' 
LOOP,urn:ioos:station:wmo:lopl1:1,2012-08-02T00:08:00Z,28.8850,-90.0250,10.0,6.6,264.0,8.2,'11111222,11111222,11111222' 
LOOP,urn:ioos:station:wmo:lopl1:1,2012-08-02T00:23:00Z,28.8850,-90.0250,10.0,6.4,269.0,7.4,'11111222,11111222,11111222' 
LOOP,urn:ioos:station:wmo:lopl1:1,2012-08-02T00:38:00Z,28.8850,-90.0250,10.0,6.0,272.0,7.2,'11111222,11111222,11111222' 
LOOP,urn:ioos:station:wmo:lopl1:1,2012-08-02T00:53:00Z,28.8850,-90.0250,10.0,5.9,270.0,6.5,'11111222,11111222,11111222' 
LOOP,urn:ioos:station:wmo:lopl1:1,2012-08-02T01:08:00Z,28.8850,-90.0250,10.0,5.6,274.0,6.2,'11111222,11111222,11111222' 
LOOP,urn:ioos:station:wmo:lopl1:1,2012-08-02T01:23:00Z,28.8850,-90.0250,10.0,5.7,279.0,6.8,'11111222,11111222,11111222' 
LOOP,urn:ioos:station:wmo:lopl1:1,2012-08-02T01:43:00Z,28.8850,-90.0250,10.0,4.6,273.0,6.2,'11111222,11111222,11111222' 
LOOP,urn:ioos:station:wmo:lopl1:1,2012-08-02T01:58:00Z,28.8850,-90.0250,10.0,4.5,269.0,5.8,'11111222,11111222,11111222' 
LOOP,urn:ioos:station:wmo:lopl1:1,2012-08-02T02:13:00Z,28.8850,-90.0250,10.0,3.5,250.0,4.7,'11111222,11111222,11111222' 
LOOP,urn:ioos:station:wmo:lopl1:1,2012-08-02T02:28:00Z,28.8850,-90.0250,10.0,4.2,242.0,5.4,'11111222,11111222,11111222' 
LOOP,urn:ioos:station:wmo:lopl1:1,2012-08-02T02:43:00Z,28.8850,-90.0250,10.0,4.5,252.0,6.2,'11111222,11111222,11111222' 
LOOP,urn:ioos:station:wmo:lopl1:1,2012-08-02T02:58:00Z,28.8850,-90.0250,10.0,5.0,245.0,6.4,'11111222,11111222,11111222' 
LOOP,urn:ioos:station:wmo:lopl1:1,2012-08-02T03:13:00Z,28.8850,-90.0250,10.0,4.3,239.0,5.6,'11111222,11111222,11111222' 
LOOP,urn:ioos:station:wmo:lopl1:1,2012-08-02T03:28:00Z,28.8850,-90.0250,10.0,4.5,244.0,5.7,'11111222,11111222,11111222' 
LOOP,urn:ioos:station:wmo:lopl1:1,2012-08-02T03:43:00Z,28.8850,-90.0250,10.0,4.7,254.0,5.9,'11111222,11111222,11111222' 
LOOP,urn:ioos:station:wmo:lopl1:1,2012-08-02T03:58:00Z,28.8850,-90.0250,10.0,4.0,237.0,5.8,'11111222,11111222,11111222' 
LOOP,urn:ioos:station:wmo:lopl1:1,2012-08-02T04:13:00Z,28.8850,-90.0250,10.0,4.9,246.0,6.2,'11111222,11111222,11111222' 
LOOP,urn:ioos:station:wmo:lopl1:1,2012-08-02T04:28:00Z,28.8850,-90.0250,10.0,5.0,258.0,6.5,'11111222,11111222,11111222' 
LOOP,urn:ioos:station:wmo:lopl1:1,2012-08-02T04:43:00Z,28.8850,-90.0250,10.0,5.5,257.0,7.7,'11111222,11111222,11111222' 
LOOP,urn:ioos:station:wmo:lopl1:1,2012-08-02T04:58:00Z,28.8850,-90.0250,10.0,5.2,253.0,6.7,'11111222,11111222,11111222' 
LOOP,urn:ioos:station:wmo:lopl1:1,2012-08-02T05:13:00Z,28.8850,-90.0250,10.0,5.5,264.0,7.6,'11111222,11111222,11111222' 
LOOP,urn:ioos:station:wmo:lopl1:1,2012-08-02T05:28:00Z,28.8850,-90.0250,10.0,5.6,259.0,6.5,'11111222,11111222,11111222' 
LOOP,urn:ioos:station:wmo:lopl1:1,2012-08-02T05:43:00Z,28.8850,-90.0250,10.0,6.0,261.0,6.8,'11111222,11111222,11111222' 
LOOP,urn:ioos:station:wmo:lopl1:1,2012-08-02T05:58:00Z,28.8850,-90.0250,10.0,6.0,262.0,7.2,'11111222,11111222,11111222' 
LOOP,urn:ioos:station:wmo:lopl1:1,2012-08-02T06:13:00Z,28.8850,-90.0250,10.0,5.6,264.0,6.7,'11111222,11111222,11111222' 
LOOP,urn:ioos:station:wmo:lopl1:1,2012-08-02T06:28:00Z,28.8850,-90.0250,10.0,5.7,265.0,6.4,'11111222,11111222,11111222' 
LOOP,urn:ioos:station:wmo:lopl1:1,2012-08-02T06:43:00Z,28.8850,-90.0250,10.0,6.3,259.0,7.2,'11111222,11111222,11111222' 
LOOP,urn:ioos:station:wmo:lopl1:1,2012-08-02T06:58:00Z,28.8850,-90.0250,10.0,6.9,262.0,8.4,'11111222,11111222,11111222' 
LOOP,urn:ioos:station:wmo:lopl1:1,2012-08-02T07:13:00Z,28.8850,-90.0250,10.0,6.2,257.0,8.3,'11111222,11111222,11111222' 
LOOP,urn:ioos:station:wmo:lopl1:1,2012-08-02T07:33:00Z,28.8850,-90.0250,10.0,6.3,258.0,8.5,'11111222,11111222,11111222' 
LOOP,urn:ioos:station:wmo:lopl1:1,2012-08-02T07:48:00Z,28.8850,-90.0250,10.0,6.1,251.0,9.5,'11111222,11111222,11111222' 
LOOP,urn:ioos:station:wmo:lopl1:1,2012-08-02T08:03:00Z,28.8850,-90.0250,10.0,5.9,255.0,7.1,'11111222,11111222,11111222' 
LOOP,urn:ioos:station:wmo:lopl1:1,2012-08-02T08:18:00Z,28.8850,-90.0250,10.0,6.8,257.0,9.0,'11111222,11111222,11111222' 
LOOP,urn:ioos:station:wmo:lopl1:1,2012-08-02T08:33:00Z,28.8850,-90.0250,10.0,5.9,258.0,7.1,'11111222,11111222,11111222' 
LOOP,urn:ioos:station:wmo:lopl1:1,2012-08-02T08:48:00Z,28.8850,-90.0250,10.0,6.8,255.0,8.4,'11111222,11111222,11111222' 
LOOP,urn:ioos:station:wmo:lopl1:1,2012-08-02T09:03:00Z,28.8850,-90.0250,10.0,6.4,252.0,8.0,'11111222,11111222,11111222' 
LOOP,urn:ioos:station:wmo:lopl1:1,2012-08-02T09:18:00Z,28.8850,-90.0250,10.0,6.5,254.0,7.6,'11111222,11111222,11111222' 
LOOP,urn:ioos:station:wmo:lopl1:1,2012-08-02T09:33:00Z,28.8850,-90.0250,10.0,5.9,257.0,7.3,'11111222,11111222,11111222' 
LOOP,urn:ioos:station:wmo:lopl1:1,2012-08-02T09:48:00Z,28.8850,-90.0250,10.0,6.2,257.0,8.3,'11111222,11111222,11111222' 
LOOP,urn:ioos:station:wmo:lopl1:1,2012-08-02T10:03:00Z,28.8850,-90.0250,10.0,6.5,258.0,8.3,'11111222,11111222,11111222' 
LOOP,urn:ioos:station:wmo:lopl1:1,2012-08-02T10:18:00Z,28.8850,-90.0250,10.0,7.2,265.0,9.1,'11111222,11111222,11111222' 
LOOP,urn:ioos:station:wmo:lopl1:1,2012-08-02T10:33:00Z,28.8850,-90.0250,10.0,6.8,264.0,8.9,'11111222,11111222,11111222' 
LOOP,urn:ioos:station:wmo:lopl1:1,2012-08-02T10:48:00Z,28.8850,-90.0250,10.0,6.7,262.0,9.7,'11111222,11111222,11111222' 
LOOP,urn:ioos:station:wmo:lopl1:1,2012-08-02T11:03:00Z,28.8850,-90.0250,10.0,6.3,255.0,8.1,'11111222,11111222,11111222' 
LOOP,urn:ioos:station:wmo:lopl1:1,2012-08-02T11:18:00Z,28.8850,-90.0250,10.0,6.1,259.0,7.7,'11111222,11111222,11111222' 
LOOP,urn:ioos:station:wmo:lopl1:1,2012-08-02T11:33:00Z,28.8850,-90.0250,10.0,6.8,258.0,8.1,'11111222,11111222,11111222' 
LOOP,urn:ioos:station:wmo:lopl1:1,2012-08-02T11:48:00Z,28.8850,-90.0250,10.0,7.0,264.0,9.4,'11111222,11111222,11111222' 
LOOP,urn:ioos:station:wmo:lopl1:1,2012-08-02T12:03:00Z,28.8850,-90.0250,10.0,6.2,254.0,8.1,'11111222,11111222,11111222' 
LOOP,urn:ioos:station:wmo:lopl1:1,2012-08-02T12:18:00Z,28.8850,-90.0250,10.0,5.7,255.0,7.9,'11111222,11111222,11111222' 
LOOP,urn:ioos:station:wmo:lopl1:1,2012-08-02T12:33:00Z,28.8850,-90.0250,10.0,5.8,269.0,7.3,'11111222,11111222,11111222' 
LOOP,urn:ioos:station:wmo:lopl1:1,2012-08-02T12:48:00Z,28.8850,-90.0250,10.0,6.2,260.0,7.9,'11111222,11111222,11111222' 
LOOP,urn:ioos:station:wmo:lopl1:1,2012-08-02T13:03:00Z,28.8850,-90.0250,10.0,6.6,262.0,9.8,'11111222,11111222,11111222' 
LOOP,urn:ioos:station:wmo:lopl1:1,2012-08-02T13:18:00Z,28.8850,-90.0250,10.0,6.9,275.0,7.9,'11111222,11111222,11111222' 
LOOP,urn:ioos:station:wmo:lopl1:1,2012-08-02T13:33:00Z,28.8850,-90.0250,10.0,6.8,271.0,7.7,'11111222,11111222,11111222' 
LOOP,urn:ioos:station:wmo:lopl1:1,2012-08-02T13:48:00Z,28.8850,-90.0250,10.0,7.0,286.0,8.0,'11111222,11111222,11111222' 
LOOP,urn:ioos:station:wmo:lopl1:1,2012-08-02T14:03:00Z,28.8850,-90.0250,10.0,6.7,295.0,8.0,'11111222,11111222,11111222' 
LOOP,urn:ioos:station:wmo:lopl1:1,2012-08-02T14:18:00Z,28.8850,-90.0250,10.0,6.1,287.0,7.2,'11111222,11111222,11111222' 
LOOP,urn:ioos:station:wmo:lopl1:1,2012-08-02T14:33:00Z,28.8850,-90.0250,10.0,5.9,299.0,7.1,'11111222,11111222,11111222' 
LOOP,urn:ioos:station:wmo:lopl1:1,2012-08-02T14:48:00Z,28.8850,-90.0250,10.0,5.3,306.0,7.3,'11111222,11111222,11111222' 
LOOP,urn:ioos:station:wmo:lopl1:1,2012-08-02T15:03:00Z,28.8850,-90.0250,10.0,5.9,303.0,6.7,'11111222,11111222,11111222' 
LOOP,urn:ioos:station:wmo:lopl1:1,2012-08-02T15:18:00Z,28.8850,-90.0250,10.0,5.1,302.0,6.1,'11111222,11111222,11111222' 
LOOP,urn:ioos:station:wmo:lopl1:1,2012-08-02T15:33:00Z,28.8850,-90.0250,10.0,4.5,296.0,5.9,'11111222,11111222,11111222' 
LOOP,urn:ioos:station:wmo:lopl1:1,2012-08-02T15:48:00Z,28.8850,-90.0250,10.0,5.4,295.0,6.3,'11111222,11111222,11111222' 
LOOP,urn:ioos:station:wmo:lopl1:1,2012-08-02T16:03:00Z,28.8850,-90.0250,10.0,5.0,298.0,6.2,'11111222,11111222,11111222' 
LOOP,urn:ioos:station:wmo:lopl1:1,2012-08-02T16:18:00Z,28.8850,-90.0250,10.0,5.7,304.0,6.8,'11111222,11111222,11111222' 
LOOP,urn:ioos:station:wmo:lopl1:1,2012-08-02T16:33:00Z,28.8850,-90.0250,10.0,5.5,296.0,6.8,'11111222,11111222,11111222' 
LOOP,urn:ioos:station:wmo:lopl1:1,2012-08-02T16:53:00Z,28.8850,-90.0250,10.0,3.7,289.0,5.0,'11111222,11111222,11111222' 
LOOP,urn:ioos:station:wmo:lopl1:1,2012-08-02T17:08:00Z,28.8850,-90.0250,10.0,3.9,296.0,5.2,'11111222,11111222,11111222' 
LOOP,urn:ioos:station:wmo:lopl1:1,2012-08-02T17:23:00Z,28.8850,-90.0250,10.0,3.5,306.0,4.8,'11111222,11111222,11111222' 
LOOP,urn:ioos:station:wmo:lopl1:1,2012-08-02T17:38:00Z,28.8850,-90.0250,10.0,3.0,283.0,4.2,'11111222,11111222,11111222' 
LOOP,urn:ioos:station:wmo:lopl1:1,2012-08-02T17:53:00Z,28.8850,-90.0250,10.0,3.4,309.0,4.8,'11111222,11111222,11111222' 
LOOP,urn:ioos:station:wmo:lopl1:1,2012-08-02T18:08:00Z,28.8850,-90.0250,10.0,3.8,303.0,4.7,'11111222,11111222,11111222' 
LOOP,urn:ioos:station:wmo:lopl1:1,2012-08-02T18:23:00Z,28.8850,-90.0250,10.0,4.3,305.0,5.5,'11111222,11111222,11111222' 
LOOP,urn:ioos:station:wmo:lopl1:1,2012-08-02T18:38:00Z,28.8850,-90.0250,10.0,4.0,293.0,5.3,'11111222,11111222,11111222' 
LOOP,urn:ioos:station:wmo:lopl1:1,2012-08-02T18:53:00Z,28.8850,-90.0250,10.0,3.6,284.0,4.5,'11111222,11111222,11111222' 
LOOP,urn:ioos:station:wmo:lopl1:1,2012-08-02T19:08:00Z,28.8850,-90.0250,10.0,4.2,285.0,5.1,'11111222,11111222,11111222' 
LOOP,urn:ioos:station:wmo:lopl1:1,2012-08-02T19:23:00Z,28.8850,-90.0250,10.0,4.0,285.0,5.1,'11111222,11111222,11111222' 
LOOP,urn:ioos:station:wmo:lopl1:1,2012-08-02T19:38:00Z,28.8850,-90.0250,10.0,3.4,279.0,4.8,'11111222,11111222,11111222' 
LOOP,urn:ioos:station:wmo:lopl1:1,2012-08-02T19:53:00Z,28.8850,-90.0250,10.0,2.9,278.0,4.1,'11111222,11111222,11111222' 
LOOP,urn:ioos:station:wmo:lopl1:1,2012-08-02T20:08:00Z,28.8850,-90.0250,10.0,3.0,280.0,4.3,'11111222,11111222,11111222' 
LOOP,urn:ioos:station:wmo:lopl1:1,2012-08-02T20:23:00Z,28.8850,-90.0250,10.0,3.7,256.0,4.5,'11111222,11111222,11111222' 
LOOP,urn:ioos:station:wmo:lopl1:1,2012-08-02T20:38:00Z,28.8850,-90.0250,10.0,3.6,265.0,4.2,'11111222,11111222,11111222' 
LOOP,urn:ioos:station:wmo:lopl1:1,2012-08-02T20:53:00Z,28.8850,-90.0250,10.0,2.7,274.0,4.4,'11111222,11111222,11111222' 
LOOP,urn:ioos:station:wmo:lopl1:1,2012-08-02T21:08:00Z,28.8850,-90.0250,10.0,2.9,247.0,3.4,'11111222,11111222,11111222' 
LOOP,urn:ioos:station:wmo:lopl1:1,2012-08-02T21:23:00Z,28.8850,-90.0250,10.0,2.7,253.0,3.5,'11111222,11111222,11111222' 
LOOP,urn:ioos:station:wmo:lopl1:1,2012-08-02T21:38:00Z,28.8850,-90.0250,10.0,2.9,234.0,3.7,'11111222,11111222,11111222' 
LOOP,urn:ioos:station:wmo:lopl1:1,2012-08-02T21:58:00Z,28.8850,-90.0250,10.0,3.5,231.0,4.4,'11111222,11111222,11111222' 
LOOP,urn:ioos:station:wmo:lopl1:1,2012-08-02T22:13:00Z,28.8850,-90.0250,10.0,3.5,239.0,5.6,'11111222,11111222,11111222' 
LOOP,urn:ioos:station:wmo:lopl1:1,2012-08-02T22:28:00Z,28.8850,-90.0250,10.0,3.1,233.0,4.0,'11111222,11111222,11111222' 
LOOP,urn:ioos:station:wmo:lopl1:1,2012-08-02T22:43:00Z,28.8850,-90.0250,10.0,3.0,231.0,4.2,'11111222,11111222,11111222' 
LOOP,urn:ioos:station:wmo:lopl1:1,2012-08-02T22:58:00Z,28.8850,-90.0250,10.0,4.2,203.0,5.0,'11111222,11111222,11111222' 
LOOP,urn:ioos:station:wmo:lopl1:1,2012-08-02T23:13:00Z,28.8850,-90.0250,10.0,3.5,231.0,4.6,'11111222,11111222,11111222' 
LOOP,urn:ioos:station:wmo:lopl1:1,2012-08-02T23:28:00Z,28.8850,-90.0250,10.0,4.1,233.0,5.0,'11111222,11111222,11111222' 
LOOP,urn:ioos:station:wmo:lopl1:1,2012-08-02T23:43:00Z,28.8850,-90.0250,10.0,3.7,241.0,5.4,'11111222,11111222,11111222' 
LOOP,urn:ioos:station:wmo:lopl1:1,2012-08-02T23:58:00Z,28.8850,-90.0250,10.0,3.4,251.0,4.5,'11111222,11111222,11111222' 
LOOP,urn:ioos:station:wmo:lopl1:1,2012-08-03T00:13:00Z,28.8850,-90.0250,10.0,3.4,232.0,4.5,'11111222,11111222,11111222' 
LOOP,urn:ioos:station:wmo:lopl1:1,2012-08-03T00:28:00Z,28.8850,-90.0250,10.0,3.9,226.0,5.1,'11111222,11111222,11111222' 
LOOP,urn:ioos:station:wmo:lopl1:1,2012-08-03T00:43:00Z,28.8850,-90.0250,10.0,3.8,235.0,4.9,'11111222,11111222,11111222' 
LOOP,urn:ioos:station:wmo:lopl1:1,2012-08-03T00:58:00Z,28.8850,-90.0250,10.0,3.7,243.0,4.8,'11111222,11111222,11111222' 
LOOP,urn:ioos:station:wmo:lopl1:1,2012-08-03T01:13:00Z,28.8850,-90.0250,10.0,3.1,245.0,4.1,'11111222,11111222,11111222' 
LOOP,urn:ioos:station:wmo:lopl1:1,2012-08-03T01:28:00Z,28.8850,-90.0250,10.0,3.1,248.0,4.3,'11111222,11111222,11111222' 
LOOP,urn:ioos:station:wmo:lopl1:1,2012-08-03T01:43:00Z,28.8850,-90.0250,10.0,4.2,256.0,5.5,'11111222,11111222,11111222' 